Location: City of Moscow
(46.7306°N, 116.9989°W)
Time: 12:25:50
(UTC+00:00)

ACS3 Solar Sail - Pass Details

Date: 25 February 2026
Orbit: 887 x 973 km, 97.2° (Epoch: 8 March)

Event Time Altitude Azimuth Distance (km) Brightness Sun altitude
Rises 10:02:35 0° 10° (N) 3,506 5.3 -44.3°
Reaches altitude 10° 10:04:59 10° 9° (N) 2,562 4.4 -44.0°
Enters shadow 10:05:31 13° 8° (N) 2,357 4.2 -43.9°
